Regional Weather Roundup
Issued by NWS Little Rock, AR

Home | Current Version | Previous Version | Text Only | Print | Product List | Glossary Off
Versions: 1 2 3 4 5 6 7 8 9 10 11 12 13 14 15 16 17 18 19 20 21 22 23 24 25 26 27 28 29 30 31 32 33 34 35 36 37 38 39 40 41 42 43 44 45 46 47 48 49 50

068
ASUS44 KLZK 260505
RWRLZK

WEATHER ROUNDUP FOR ARKANSAS
NATIONAL WEATHER SERVICE LITTLE ROCK AR
1100 PM CST SAT FEB 25 2017

NOTE: "FAIR" INDICATES FEW OR NO CLOUDS BELOW 12,000 FEET WITH NO
SIGNIFICANT WEATHER AND/OR OBSTRUCTIONS TO VISIBILITY.

ARZ001-003-010-029-260600-
NORTHWEST ARKANSAS

CITY           SKY/WX    TMP DP  RH WIND       PRES   REMARKS
FAYETTEVILLE   CLEAR     27  20  75 CALM      30.10S
FORT SMITH     PTCLDY    33  26  75 NE3       30.12S
HARRISON       CLEAR     32  17  54 S5        30.09F WCI  27
BENTONVILLE    CLEAR     34  18  51 SE3       30.09S
ROGERS         CLEAR     32  22  66 SE6       30.10S WCI  26
SILOAM SPGS    CLEAR     34  14  44 S3        30.09S
HIGHFILL       CLEAR     29  17  61 CALM      30.08F
$$

ARZ004-005-016-260600-
NORTH CENTRAL ARKANSAS

CITY           SKY/WX    TMP DP  RH WIND       PRES   REMARKS
BATESVILLE     CLEAR     34  23  64 CALM      30.16S
FLIPPIN        CLEAR     30  18  59 CALM      30.10F
MTN HOME       CLEAR     33  14  45 S3        30.10F
$$

ARZ040-041-260600-
WEST CENTRAL ARKANSAS

CITY           SKY/WX    TMP DP  RH WIND       PRES   REMARKS
MENA           CLEAR     32  27  80 CALM      30.11S
MOUNT IDA      CLEAR     32  24  72 CALM      30.09F HAZE
$$

ARZ009-017-025-026-028-260600-
NORTHEAST ARKANSAS

CITY           SKY/WX    TMP DP  RH WIND       PRES   REMARKS
CORNING        CLOUDY    36  23  60 CALM      30.17S
JONESBORO      CLEAR     30  25  81 CALM      30.16S
NEWPORT        CLEAR     35  26  69 E3        30.16F
WALNUT RIDGE   PTCLDY    37  21  52 CALM      30.16S
BLYTHEVILLE    PTCLDY    34  25  69 SW3       30.17S
$$

ARZ022-023-033-042-044-260600-
CENTRAL ARKANSAS

CITY           SKY/WX    TMP DP  RH WIND       PRES   REMARKS
LITTLE ROCK    CLEAR     38  26  62 CALM      30.15F
N LITTLE ROCK    N/A     39  25  56 CALM      30.17S
JACKSONVILLE   CLEAR     33  28  81 CALM      30.14S
SEARCY         CLEAR     30  27  88 CALM      30.17F
HOT SPRINGS    CLEAR     35  26  69 E3        30.13S
RUSSELLVILLE   CLEAR     31  25  78 CALM      30.12F
CLINTON        FAIR      28  25  86 CALM      30.15F
$$

ARZ036-260600-
EAST ARKANSAS

CITY           SKY/WX    TMP DP  RH WIND       PRES   REMARKS
WEST MEMPHIS   CLEAR     34  29  82 CALM      30.16S
$$

ARZ050-053-066-070-073-260600-
SOUTHWEST ARKANSAS

CITY           SKY/WX    TMP DP  RH WIND       PRES   REMARKS
ARKADELPHIA    FAIR      35  33  92 CALM      30.15S
CAMDEN         CLEAR     36  28  75 CALM      30.15S
TEXARKANA      CLEAR     41  24  51 E3        30.12F
EL DORADO      CLEAR     36  32  85 CALM      30.14S
DE QUEEN       CLEAR     33  31  92 CALM      30.11S
$$

ARZ056-057-069-260600-
SOUTHEAST ARKANSAS

CITY           SKY/WX    TMP DP  RH WIND       PRES   REMARKS
PINE BLUFF     CLEAR     39  30  70 CALM      30.16S
STUTTGART      CLEAR     41  25  52 E5        30.16F
MONTICELLO     CLEAR     38  29  70 CALM      30.16S

$$






USA.gov is the U.S. government's official web portal to all federal, state and local government web resources and services.